Cozumel, Mexico

12:56 AM EST on July 27, 2017 (GMT -0500)
Cozumel

Weather History for MMCZ - December, 2013

Change the Weather History Date:

Wednesday, December 4, 2013

  Actual Average Record
Temperature  
Mean Temperature 74 °F -  
Max Temperature 80 °F 80 °F 86 °F (1997)
Min Temperature 69 °F 70 °F 59 °F (2010)
Cooling Degree Days 10    
Growing Degree Days 24 (Base 50)    
Moisture  
Dew Point 70 °F    
Average Humidity 87    
Maximum Humidity 100    
Minimum Humidity 74    
Precipitation  
Precipitation 0.00 in - - ()
Sea Level Pressure  
Sea Level Pressure 29.92 in    
Wind  
Wind Speed 8 mph ()    
Max Wind Speed 15 mph    
Max Gust Speed -    
Visibility 7.5 miles    
Events      
Averages and records for this station are not official NWS values.
T = Trace of Precipitation, MM = Missing Value Source: Averaged Metar Reports

Daily Weather History Graph

Daily Weather History Graph

Search for Another Location

Airport or City:

Trip Planner

Search our weather history database for the weather conditions in past years. The results will help you decide how hot, cold, wet, or windy it might be!

Date:

Astronomy

Dec. 04, 2013 Rise Set
Actual Time 6:09 AM CST 5:06 PM CST
Civil Twilight 5:45 AM CST 5:30 PM CST
Nautical Twilight 5:18 AM CST 5:57 PM CST
Astronomical Twilight 4:51 AM CST 6:25 PM CST
Moon 7:41 AM CST (12/4) 7:10 PM CST (12/4)
Length of Visible Light 11h 45m
Length of Day
10h 57m
Waxing Crescent, 4% of the Moon is Illuminated
Dec 4
Waxing Crescent
Dec 9
First Quarter
Dec 17
Full
Dec 25
Last Quarter
Jan 1
New

Hourly Weather History & Observations

Time (CST) Temp. Heat Index Dew Point Humidity Pressure Visibility Wind Dir Wind Speed Gust Speed Precip Events Conditions
12:55 AM 73.4 °F - 68.0 °F 83% 29.91 in 7.0 mi SE 8.1 mph - N/A   Partly Cloudy
1:43 AM 73.4 °F - 68.0 °F 83% 29.81 in 7.0 mi SE 9.2 mph - N/A   Partly Cloudy
2:40 AM 73.4 °F - 68.0 °F 83% 29.91 in 7.0 mi SE 10.4 mph - N/A   Partly Cloudy
3:45 AM 73.4 °F - 69.8 °F 88% 29.88 in 7.0 mi SE 10.4 mph - N/A   Partly Cloudy
4:40 AM 73.4 °F - 69.8 °F 88% 29.88 in 7.0 mi SE 9.2 mph - N/A   Partly Cloudy
5:44 AM 73.4 °F - 69.8 °F 88% 29.88 in 7.0 mi SE 11.5 mph - N/A   Partly Cloudy
6:41 AM 73.4 °F - 69.8 °F 88% 29.90 in 8.0 mi SE 13.8 mph - N/A   Scattered Clouds
7:52 AM 75.2 °F - 71.6 °F 89% 29.94 in 8.0 mi SE 12.7 mph - N/A   Scattered Clouds
8:44 AM 78.8 °F - 71.6 °F 78% 29.99 in 8.0 mi SE 8.1 mph - N/A   Scattered Clouds
9:41 AM 80.6 °F 84.6 °F 71.6 °F 74% 29.97 in 8.0 mi SE 15.0 mph - N/A   Scattered Clouds
10:52 AM 78.8 °F - 71.6 °F 78% 29.96 in 8.0 mi SE 13.8 mph - N/A   Mostly Cloudy
11:45 AM 78.8 °F - 71.6 °F 78% 29.93 in 8.0 mi SSE 10.4 mph - N/A   Mostly Cloudy
12:45 PM 78.8 °F - 71.6 °F 78% 29.92 in 8.0 mi SE 11.5 mph - N/A   Mostly Cloudy
1:44 PM 78.8 °F - 71.6 °F 78% 29.90 in 8.0 mi SE 10.4 mph - N/A   Mostly Cloudy
2:44 PM 78.8 °F - 73.4 °F 83% 29.91 in 8.0 mi SE 13.8 mph - N/A   Scattered Clouds
3:46 PM 78.8 °F - 71.6 °F 78% 29.89 in 8.0 mi SE 13.8 mph - N/A   Scattered Clouds
4:42 PM 77.0 °F - 71.6 °F 83% 29.90 in 8.0 mi SE 5.8 mph - N/A   Partly Cloudy
5:40 PM 73.4 °F - 71.6 °F 94% 29.91 in 8.0 mi ESE 3.5 mph - N/A   Scattered Clouds
6:43 PM 71.6 °F - 69.8 °F 94% 29.93 in 7.0 mi ESE 3.5 mph - N/A   Scattered Clouds
7:51 PM 71.6 °F - 69.8 °F 94% 29.95 in 7.0 mi ESE 3.5 mph - N/A   Scattered Clouds
8:41 PM 69.8 °F - 69.8 °F 100% 29.99 in 7.0 mi ESE 3.5 mph - N/A   Partly Cloudy
9:47 PM 69.8 °F - 69.8 °F 100% 29.98 in 7.0 mi ESE 3.5 mph - N/A   Partly Cloudy
10:40 PM 69.8 °F - 69.8 °F 100% 29.98 in 7.0 mi ESE 4.6 mph - N/A   Partly Cloudy
11:50 PM 69.8 °F - 69.8 °F 100% 29.95 in 7.0 mi ESE 4.6 mph - N/A   Partly Cloudy